Weather History for Johnstown, PA

Change the Weather History Date:

Sunday, February 17, 2013

  Actual Average Record
Temperature  
Mean Temperature 12 °F 27 °F  
Max Temperature 15 °F 34 °F 75 °F (1954)
Min Temperature 10 °F 20 °F -6 °F (1958)
Degree Days  
Heating Degree Days 52 38  
Month to date heating degree days 663  
Since 1 July heating degree days 4480  
Cooling Degree Days 0 0  
Month to date cooling degree days 0  
Year to date cooling degree days 0  
Moisture  
Dew Point 7 °F    
Average Humidity 77    
Maximum Humidity 92    
Minimum Humidity 62    
Precipitation  
Precipitation 0.01 in 0.08 in 1.18 in (1980)
Month to date precipitation 1.41  
Year to date precipitation 4.29  
Sea Level Pressure  
Sea Level Pressure 29.93 in    
Wind  
Wind Speed 14 mph (WNW)    
Max Wind Speed 30 mph    
Max Gust Speed 41 mph    
Visibility 3 miles    
Events Fog , Snow    
T = Trace of Precipitation, MM = Missing Value Source: NWS Daily Summary

Daily Weather History Graph

Daily Weather History Graph

Search for Another Location

Airport:

Trip Planner

Search our weather history database for the weather conditions in past years. The results will help you decide how hot, cold, wet, or windy it might be!

Date:

Astronomy

Feb. 17, 2013 Rise Set
Actual Time 7:05 AM EST 5:53 PM EST
Civil Twilight 6:37 AM EST 6:21 PM EST
Nautical Twilight 6:06 AM EST 6:53 PM EST
Astronomical Twilight 5:34 AM EST 7:24 PM EST
Moon 10:56 AM EST (2/17) 12:48 AM EST (2/17)
Length of Visible Light 11h 43m
Length of Day
10h 47m
Waxing Crescent, 49% of the Moon is Illuminated
Feb 17
Waxing Crescent
Feb 17
First Quarter
Feb 25
Full
Mar 4
Last Quarter
Mar 11
New

Hourly Weather History & Observations

Time (EST) Temp. Windchill Dew Point Humidity Pressure Visibility Wind Dir Wind Speed Gust Speed Precip Events Conditions
12:54 AM 14.0 °F 6.5 °F 9.0 °F 80% 29.88 in 10.0 mi NNW 4.6 mph - N/A   Clear
1:54 AM 14.0 °F 5.1 °F 7.0 °F 74% 29.88 in 10.0 mi NNW 5.8 mph - N/A   Overcast
2:54 AM 14.0 °F 2.9 °F 10.0 °F 84% 29.88 in 10.0 mi WNW 8.1 mph - N/A   Overcast
3:54 AM 12.9 °F -0.2 °F 8.1 °F 81% 29.88 in 7.0 mi NW 10.4 mph - N/A   Overcast
4:54 AM 12.9 °F -1.6 °F 9.0 °F 84% 29.90 in 5.0 mi WNW 12.7 mph - 0.00 in Snow Light Snow
5:09 AM 12.2 °F -2.5 °F 8.6 °F 85% 29.78 in 2.0 mi NW 12.7 mph - 0.00 in Snow Light Snow
5:26 AM 12.2 °F -2.5 °F 8.6 °F 85% 29.79 in 1.8 mi WNW 12.7 mph - 0.00 in Snow Light Snow
5:35 AM 12.2 °F -2.5 °F 8.6 °F 85% 29.79 in 1.2 mi WNW 12.7 mph - 0.00 in Snow Light Snow
5:54 AM 12.0 °F -2.7 °F 9.0 °F 88% 29.91 in 2.0 mi WNW 12.7 mph - 0.00 in Snow Light Snow
6:07 AM 12.2 °F -1.0 °F 8.6 °F 85% 29.79 in 1.0 mi WNW 10.4 mph - 0.00 in Snow Light Snow
6:21 AM 12.2 °F -1.8 °F 8.6 °F 85% 29.79 in 0.8 mi WNW 11.5 mph - 0.00 in Snow Light Snow
6:36 AM 12.2 °F -0.2 °F 8.6 °F 85% 29.80 in 0.5 mi WNW 9.2 mph - 0.00 in Fog , Snow Snow
6:50 AM 12.2 °F -2.5 °F 8.6 °F 85% 29.80 in 1.0 mi WNW 12.7 mph - 0.00 in Snow Light Snow
6:54 AM 12.0 °F -2.0 °F 9.0 °F 88% 29.91 in 1.2 mi WNW 11.5 mph - 0.00 in Snow Light Snow
7:02 AM 12.2 °F -1.8 °F 8.6 °F 85% 29.80 in 1.2 mi WNW 11.5 mph - 0.00 in Snow Light Snow
7:08 AM 12.2 °F -1.8 °F 8.6 °F 85% 29.80 in 1.5 mi WNW 11.5 mph 19.6 mph 0.00 in Snow Light Snow
7:16 AM 12.2 °F -2.5 °F 8.6 °F 85% 29.80 in 0.5 mi WNW 12.7 mph - 0.00 in Fog , Snow Snow
7:54 AM 12.9 °F -2.2 °F 10.0 °F 88% 29.93 in 0.2 mi WNW 13.8 mph - 0.00 in Fog , Snow Snow
8:15 AM 12.2 °F -2.5 °F 10.4 °F 92% 29.81 in 0.5 mi West 12.7 mph - 0.00 in Fog , Snow Snow
8:54 AM 12.9 °F -0.9 °F 9.0 °F 84% 29.95 in 0.5 mi West 11.5 mph 20.7 mph 0.00 in Fog , Snow Light Snow
9:54 AM 12.9 °F -0.9 °F 9.0 °F 84% 29.96 in 0.5 mi West 11.5 mph - 0.00 in Fog , Snow Snow
10:19 AM 12.2 °F -2.5 °F 8.6 °F 85% 29.85 in 1.0 mi West 12.7 mph 18.4 mph 0.00 in Snow Light Snow
10:41 AM 14.0 °F 0.5 °F 8.6 °F 79% 29.85 in 0.8 mi West 11.5 mph - 0.00 in Snow Light Snow
10:54 AM 14.0 °F 0.5 °F 10.0 °F 84% 29.98 in 0.5 mi West 11.5 mph - 0.00 in Fog , Snow Snow
11:08 AM 14.0 °F -0.8 °F 8.6 °F 79% 29.86 in 0.2 mi WNW 13.8 mph - 0.00 in Snow Heavy Snow
11:36 AM 15.8 °F -0.6 °F 10.4 °F 79% 29.86 in 0.8 mi WNW 18.4 mph 25.3 mph 0.00 in Snow Light Snow
11:38 AM 15.8 °F 0.3 °F 8.6 °F 73% 29.86 in 1.2 mi WNW 16.1 mph 25.3 mph 0.00 in Snow Light Snow
11:54 AM 15.1 °F -2.0 °F 8.1 °F 74% 29.98 in 2.5 mi WNW 19.6 mph 27.6 mph 0.00 in Snow Light Snow
11:59 AM 14.0 °F -0.8 °F 8.6 °F 79% 29.86 in 0.8 mi WNW 13.8 mph 26.5 mph 0.00 in Snow Light Snow
12:05 PM 14.0 °F -2.5 °F 10.4 °F 86% 29.86 in 0.2 mi WNW 17.3 mph - 0.00 in Fog , Snow Heavy Snow
12:16 PM 14.0 °F -2.5 °F 10.4 °F 86% 29.86 in 0.2 mi WNW 17.3 mph - 0.00 in Fog , Snow Snow
12:40 PM 14.0 °F -2.0 °F 10.4 °F 86% 29.86 in 0.5 mi WNW 16.1 mph - 0.00 in Fog , Snow Snow
12:52 PM 14.0 °F -3.4 °F 8.6 °F 79% 29.86 in 0.8 mi WNW 19.6 mph 23.0 mph 0.00 in Snow Light Snow
12:54 PM 14.0 °F -3.0 °F 9.0 °F 80% 29.99 in 0.5 mi WNW 18.4 mph 23.0 mph 0.00 in Snow Snow
12:58 PM 14.0 °F -3.4 °F 10.4 °F 86% 29.86 in 0.2 mi West 19.6 mph 29.9 mph 0.00 in Fog , Snow Heavy Snow
1:06 PM 14.0 °F -1.4 °F 8.6 °F 79% 29.87 in 0.5 mi West 15.0 mph 29.9 mph 0.00 in Snow Snow
1:14 PM 15.8 °F -0.6 °F 10.4 °F 79% 29.87 in 1.5 mi WNW 18.4 mph 25.3 mph 0.00 in Snow Light Snow
1:47 PM 14.0 °F -3.4 °F 8.6 °F 79% 29.87 in 0.2 mi West 19.6 mph 27.6 mph 0.00 in Snow Heavy Snow
1:54 PM 14.0 °F -3.9 °F 9.0 °F 80% 30.00 in 0.2 mi WNW 20.7 mph 26.5 mph 0.00 in Snow Heavy Snow
2:04 PM 14.0 °F -2.0 °F 10.4 °F 86% 29.87 in 0.5 mi WNW 16.1 mph - 0.00 in Fog , Snow Snow
2:22 PM 15.8 °F -0.2 °F 10.4 °F 79% 29.88 in 0.2 mi WNW 17.3 mph - 0.00 in Fog , Snow Heavy Snow
2:29 PM 14.0 °F -4.3 °F 8.6 °F 79% 29.88 in 0.5 mi WNW 21.9 mph 28.8 mph 0.00 in Snow Snow
2:44 PM 14.0 °F -6.2 °F 6.8 °F 73% 29.88 in 0.2 mi NW 27.6 mph 36.8 mph 0.00 in Snow Heavy Snow
2:54 PM 15.1 °F -4.7 °F 5.0 °F 64% 30.00 in 0.5 mi NW 27.6 mph 36.8 mph 0.00 in Snow Snow
3:01 PM 15.8 °F -1.1 °F 6.8 °F 68% 29.88 in 0.8 mi WNW 19.6 mph 36.8 mph 0.00 in Snow Light Snow
3:11 PM 15.8 °F -0.6 °F 5.0 °F 62% 29.88 in 1.8 mi WNW 18.4 mph 33.4 mph 0.00 in   Mostly Cloudy
3:37 PM 14.0 °F -6.8 °F 6.8 °F 73% 29.89 in 0.2 mi WNW 29.9 mph 41.4 mph 0.00 in Snow Heavy Snow
3:46 PM 12.2 °F -6.7 °F 6.8 °F 79% 29.89 in 0.5 mi WNW 21.9 mph 33.4 mph 0.00 in Snow Snow
3:54 PM 14.0 °F -3.4 °F 7.0 °F 74% 30.02 in 0.5 mi West 19.6 mph 34.5 mph 0.00 in Snow Snow
4:05 PM 14.0 °F -4.3 °F 6.8 °F 73% 29.90 in 1.0 mi West 21.9 mph 31.1 mph 0.00 in Snow Light Snow
4:26 PM 12.2 °F -7.5 °F 6.8 °F 79% 29.91 in 0.5 mi WNW 24.2 mph 32.2 mph 0.01 in Snow Snow
4:36 PM 14.0 °F -5.5 °F 5.0 °F 67% 29.91 in 1.8 mi WNW 25.3 mph 29.9 mph 0.01 in Snow Light Snow
4:43 PM 14.0 °F -4.3 °F 5.0 °F 67% 29.91 in 1.5 mi WNW 21.9 mph 31.1 mph 0.01 in Snow Blowing Snow
4:51 PM 12.2 °F -6.7 °F 6.8 °F 79% 29.92 in 0.5 mi WNW 21.9 mph 32.2 mph 0.01 in Snow Snow
4:54 PM 12.9 °F -5.7 °F 7.0 °F 77% 30.05 in 0.5 mi WNW 21.9 mph 32.2 mph 0.01 in Snow Snow
5:13 PM 12.2 °F -4.8 °F 6.8 °F 79% 29.93 in 2.5 mi WNW 17.3 mph 27.6 mph 0.00 in   Mostly Cloudy
5:20 PM 12.2 °F -5.3 °F 5.0 °F 73% 29.94 in 4.0 mi WNW 18.4 mph - 0.00 in   Overcast
5:31 PM 12.2 °F -4.8 °F 5.0 °F 73% 29.94 in 4.0 mi WNW 17.3 mph 28.8 mph 0.00 in Snow Blowing Snow
5:54 PM 12.9 °F -2.8 °F 1.9 °F 62% 30.09 in 7.0 mi WNW 15.0 mph 25.3 mph 0.00 in   Overcast
6:54 PM 12.9 °F -3.9 °F 1.9 °F 62% 30.11 in 10.0 mi West 17.3 mph - 0.00 in   Overcast
7:54 PM 12.0 °F -4.5 °F 1.9 °F 64% 30.14 in 10.0 mi WNW 16.1 mph 26.5 mph N/A   Overcast
8:51 PM 12.2 °F -4.8 °F 1.4 °F 62% 30.03 in 7.0 mi WNW 17.3 mph 26.5 mph N/A   Overcast
8:54 PM 12.0 °F -6.5 °F 1.9 °F 64% 30.17 in 10.0 mi West 20.7 mph 27.6 mph N/A   Overcast
9:54 PM 12.0 °F -4.5 °F 1.9 °F 64% 30.19 in 10.0 mi WNW 16.1 mph - N/A   Overcast
10:23 PM 10.4 °F -5.4 °F 1.4 °F 67% 30.07 in 10.0 mi WNW 13.8 mph - N/A   Overcast
10:54 PM 10.9 °F -5.9 °F 1.0 °F 64% 30.21 in 9.0 mi WNW 16.1 mph 25.3 mph N/A   Overcast
11:13 PM 10.4 °F -7.7 °F 1.4 °F 67% 30.07 in 10.0 mi WNW 18.4 mph 24.2 mph N/A   Mostly Cloudy
11:21 PM 10.4 °F -8.2 °F 1.4 °F 67% 30.07 in 9.0 mi WNW 19.6 mph - N/A   Scattered Clouds
11:28 PM 10.4 °F -7.2 °F 1.4 °F 67% 30.07 in 9.0 mi WNW 17.3 mph - N/A   Mostly Cloudy
11:40 PM 10.4 °F -9.5 °F 1.4 °F 67% 30.07 in 6.0 mi WNW 23.0 mph 32.2 mph N/A Snow Blowing Snow
11:54 PM 10.9 °F -9.6 °F 1.0 °F 64% 30.21 in 4.0 mi WNW 25.3 mph 35.7 mph N/A Snow Blowing Snow